Location: Unspecified
(0.0000°N, 0.0000°E)
Time: 07:09:13
(UTC+00:00)

Vanguard 2 - Pass Details

Date: 16 September 2019
Orbit: 554 x 2937 km, 32.9° (Epoch: 14 October)

Event Time Altitude Azimuth Distance (km) Brightness Sun altitude
Rises 03:43:04 0° 267° (W) 6,307 - -33.0°
Reaches altitude 10° 03:49:21 10° 282° (WNW) 4,884 - -31.4°
Maximum altitude 03:57:52 20° 322° (NW) 3,441 - -29.3°
Exits shadow 03:58:23 20° 326° (NW) 3,397 10.5 -29.1°
Drops below altitude 10° 04:04:16 10° 5° (N) 3,517 11.0 -27.7°
Sets 04:07:50 0° 23° (NNE) 4,106 11.6 -26.8°
